Погода в Чобыкове

Россия / Республика Марий Эл     57°03′18″N   48°48′04″E
темп.,
°C
ветер,
м/с
пор.,
м/с
влажн.,
%
обл.,
%
осадки,
мм/ч
давл.,
гПа
погр.,
м
6 мая, чт
чт600:00+2з5108984 0.0 1010309
03:00+1зюз37968 0.0 1012152
06:00+3з3586100 0.0 1013260
09:00+5юз2481100 0.0 1015287
12:00+12ююз456426 0.0 1014958
15:00+14юз5768100 0.0 1013931
18:00+14ю487196 0.1 1012200
21:00+11ююз51380100 0.1 1013305
7 мая, пт
пт700:00+10ююз61578100 0.0 1013383
03:00+9ю51483100 0.0 1013294
06:00+10ю61478100 0.0 1013397
09:00+14ююз71260100 0.0 10131013
12:00+16ююз81354100 0.0 10131739
15:00+12зюз71279100 0.8 10141036
18:00+8зсз278569 0.3 1016293
21:00+6зюз239479 0.3 101843
8 мая, сб
сб800:00+6юз229035 0.0 101912
03:00+5юз11880 0.0 101910
06:00+8вюв23791 0.0 1020126
09:00+13вюв575731 0.0 1019852
12:00+16ююв5756100 0.0 10171627
15:00+17ю695668 0.1 10161766
18:00+15ююв5106790 0.1 1014456
21:00+12ююв6147460 0.1 1014353
9 мая, вс
вс900:00+11ююв7157762 0.0 1013318
03:00+12ююв71871100 0.0 1012429
06:00+13ю71569100 0.0 1012547
09:00+14ю71468100 0.1 1013959
12:00+17ююз81360100 0.0 10131527
15:00+10зсз4585100 0.2 1016313
18:00+8зсз5790100 1.6 1019438
21:00+7сз2690100 2.1 1021284
10 мая, пн
пн1000:00+7ссз2694100 0.8 1022328
03:00+7с2491100 1.4 1023165
06:00+7ссз4782100 0.0 1026380
09:00+9с34735 0.1 1027607
12:00+13с34535 0.0 10271332
15:00+14ссз34465 0.0 10271511
18:00+13с235563 0.0 1028118
21:00+9зюз11585 0.0 102910